Tracking 18852 objects as of 23-Nov-2017
HD Live streaming from Space Station
objects crossing your sky now

FENGYUN 1C DEB

Track FENGYUN 1C DEB now!
10-day predictions


NORAD ID: 32330
Int'l Code: 1999-025CXX
Perigee: 780.8 km
Apogee: 1,051.0 km
Inclination: 98.1 °
Period: 103.2 minutes
Semi major axis: 7286 km
RCS: 0.0143 m2 (small)
Launch date: May 10, 1999
Source: People's Republic of China (PRC)
Launch site: Taiyaun Space Center, China (TSC)

Note: This is SATELLITE DEBRIS
aabbcc
Your satellite tracking list
Your tracking list is empty




NASA's NSSDC Master Catalog

Two Line Element Set (TLE):
1 32330U 99025CXX 17326.92362478  .00000402  00000-0  27750-3 0  9996
2 32330  98.0621 208.2725 0185416 162.9691 197.7810 13.95684932540983
Source of the keplerian elements: AFSPC